User: anonymous   Login
Location: Tucson
(32.2217°N, 110.9265°W)
Time: 00:26:26
(UTC-07:00)
Language:

S-56A Canister/Altair - Orbit

View from above orbital plane
View from above orbital plane
View from above satellite
View from above satellite

Ground track
Ground track

The orbit data is extracted from the following two-line orbital elements,

1 00082U 61004B   21293.38495668 -.00000098  00000-0 -51371-4 0  9997
2 00082  38.8623 184.2404 1176548 288.0336  59.5781 12.26016148867947
Epoch (UTC): 20 October 2021 09:14:20
Eccentricity: 0.1176548
inclination: 38.8623°
perigee height: 632 km
apogee height: 2501 km
right ascension of ascending node: 184.2404°
argument of perigee: 288.0336°
revolutions per day: 12.26016148
mean anomaly at epoch: 59.5781°
orbit number at epoch: 86794

The dashed part of the orbit path shows where the satellite is in the earth's shadow,  

DLR